,,PA_Meas_PMT16A,,PR_Meas_QMR101_102,,RH_Meas_QMH101,,SR_Meas_QMS101,,TA_Meas_QMH101,,GenWind,,GenWind,
time,status,PA,status,PR,status,RH,status,SR,status,TA,status,DirAvg,status,SpdAvg,
2010-12-08, 00:00:04,VALID,916.807,VALID,0,VALID,93.5393,VALID,0,VALID,19.7598,VALID,140,VALID,0.772656,
2010-12-08, 00:01:04,VALID,916.764,VALID,0,VALID,93.4936,VALID,0.107441,VALID,19.7598,VALID,140,VALID,0.619531,
2010-12-08, 00:02:04,VALID,916.754,VALID,0,VALID,93.4555,VALID,0,VALID,19.7403,VALID,140,VALID,0.522656,
2010-12-08, 00:03:04,VALID,916.684,VALID,0,VALID,93.6003,VALID,0,VALID,19.7208,VALID,140,VALID,0.703906,
2010-12-08, 00:04:04,VALID,916.666,VALID,0,VALID,93.646,VALID,0.107441,VALID,19.7208,VALID,140,VALID,0.878125,
2010-12-08, 00:05:04,VALID,916.631,VALID,0,VALID,93.7604,VALID,0,VALID,19.7013,VALID,140,VALID,0.680469,
2010-12-08, 00:06:04,VALID,916.634,VALID,0,VALID,93.7985,VALID,0,VALID,19.7013,VALID,140,VALID,0.8375,
2010-12-08, 00:07:04,VALID,916.617,VALID,0,VALID,93.951,VALID,0,VALID,19.7418,VALID,140,VALID,0.639453,
2010-12-08, 00:08:04,VALID,916.598,VALID,0,VALID,94.1873,VALID,0,VALID,19.7403,VALID,140,VALID,0.188281,
2010-12-08, 00:09:04,VALID,916.563,VALID,0,VALID,93.951,VALID,0.107441,VALID,19.7208,VALID,140,VALID,0.5625,
2010-12-08, 00:10:04,VALID,916.528,VALID,0,VALID,93.7299,VALID,0,VALID,19.7613,VALID,140,VALID,0.506641,
2010-12-08, 00:11:04,VALID,916.545,VALID,0,VALID,93.5393,VALID,0,VALID,19.7613,VALID,140,VALID,0.580469,
2010-12-08, 00:12:04,VALID,916.514,VALID,0,VALID,93.3945,VALID,0,VALID,19.7598,VALID,140,VALID,0.395312,
2010-12-08, 00:13:04,VALID,916.509,VALID,0,VALID,93.3564,VALID,0,VALID,19.7808,VALID,140,VALID,0.421094,
2010-12-08, 00:14:04,VALID,916.472,VALID,0,VALID,93.2191,VALID,0,VALID,19.7598,VALID,140,VALID,0.482812,
2010-12-08, 00:15:04,VALID,916.489,VALID,0,VALID,93.1353,VALID,0,VALID,19.7808,VALID,140,VALID,0.658203,
2010-12-08, 00:16:04,VALID,916.462,VALID,0,VALID,93.059,VALID,0,VALID,19.7598,VALID,140,VALID,0.611328,
2010-12-08, 00:17:04,VALID,916.454,VALID,0,VALID,93.2268,VALID,0,VALID,19.7808,VALID,140,VALID,0.56875,
2010-12-08, 00:18:04,VALID,916.487,VALID,0,VALID,93.4097,VALID,0,VALID,19.7208,VALID,140,VALID,0.561719,
2010-12-08, 00:19:04,VALID,916.486,VALID,0,VALID,93.4859,VALID,0,VALID,19.6833,VALID,140,VALID,0.758594,
2010-12-08, 00:20:04,VALID,916.435,VALID,0,VALID,93.8214,VALID,0,VALID,19.6248,VALID,140,VALID,0.669531,
2010-12-08, 00:21:04,VALID,916.442,VALID,0,VALID,93.89,VALID,0,VALID,19.5858,VALID,140,VALID,0.723047,
2010-12-08, 00:22:04,VALID,916.425,VALID,0,VALID,93.768,VALID,0,VALID,19.5858,VALID,140,VALID,0.598047,
2010-12-08, 00:23:04,VALID,916.408,VALID,0,VALID,93.6308,VALID,0,VALID,19.6248,VALID,140,VALID,0.560547,
2010-12-08, 00:24:04,VALID,916.377,VALID,0,VALID,93.4555,VALID,0,VALID,19.6053,VALID,140,VALID,0.770703,
2010-12-08, 00:25:04,VALID,916.392,VALID,0,VALID,93.3792,VALID,0,VALID,19.6053,VALID,140,VALID,0.701172,
2010-12-08, 00:26:04,VALID,916.365,VALID,0,VALID,93.3411,VALID,0,VALID,19.6248,VALID,140,VALID,0.597266,
2010-12-08, 00:27:04,VALID,916.339,VALID,0,VALID,93.242,VALID,0,VALID,19.6443,VALID,140,VALID,0.345313,
2010-12-08, 00:28:04,VALID,916.317,VALID,0,VALID,93.1734,VALID,0,VALID,19.6233,VALID,140,VALID,0.358203,
2010-12-08, 00:29:04,VALID,916.31,VALID,0,VALID,93.1505,VALID,0,VALID,19.6443,VALID,140,VALID,0.481641,
2010-12-08, 00:30:04,VALID,916.313,VALID,0,VALID,93.1276,VALID,0,VALID,19.6428,VALID,140,VALID,0.373828,
2010-12-08, 00:31:04,VALID,916.295,VALID,0,VALID,93.2572,VALID,0,VALID,19.6638,VALID,140,VALID,0.239844,
2010-12-08, 00:32:04,VALID,916.277,VALID,0,VALID,93.303,VALID,0,VALID,19.6638,VALID,140,VALID,0.00195313,
2010-12-08, 00:33:04,VALID,916.264,VALID,0,VALID,93.3106,VALID,0,VALID,19.6443,VALID,140,VALID,0,
2010-12-08, 00:34:04,VALID,916.269,VALID,0,VALID,93.4326,VALID,0,VALID,19.6248,VALID,140,VALID,0,
2010-12-08, 00:35:04,VALID,916.267,VALID,0,VALID,93.4097,VALID,0,VALID,19.6443,VALID,140,VALID,0,
2010-12-08, 00:36:04,VALID,916.287,VALID,0,VALID,93.5774,VALID,0,VALID,19.6428,VALID,140,VALID,0.104297,
2010-12-08, 00:37:04,VALID,916.265,VALID,0,VALID,93.5927,VALID,0,VALID,19.6638,VALID,140,VALID,0.0421875,
2010-12-08, 00:38:04,VALID,916.294,VALID,0,VALID,93.5546,VALID,0,VALID,19.6623,VALID,140,VALID,0.378125,
2010-12-08, 00:39:04,VALID,916.286,VALID,0,VALID,93.5164,VALID,0,VALID,19.6428,VALID,140,VALID,0.229687,
2010-12-08, 00:40:04,VALID,916.303,VALID,0,VALID,93.3792,VALID,0,VALID,19.6638,VALID,140,VALID,0.0382813,
2010-12-08, 00:41:04,VALID,916.31,VALID,0,VALID,93.4707,VALID,0,VALID,19.6428,VALID,140,VALID,0,
2010-12-08, 00:42:04,VALID,916.275,VALID,0,VALID,93.3106,VALID,0,VALID,19.6248,VALID,140,VALID,0,
2010-12-08, 00:43:04,VALID,916.308,VALID,0,VALID,93.2649,VALID,0,VALID,19.5843,VALID,140,VALID,0,
2010-12-08, 00:44:04,VALID,916.336,VALID,0,VALID,93.425,VALID,0,VALID,19.5648,VALID,140,VALID,0,
2010-12-08, 00:45:04,VALID,916.326,VALID,0,VALID,93.4021,VALID,0,VALID,19.5468,VALID,140,VALID,0.703125,
2010-12-08, 00:46:04,VALID,916.328,VALID,0,VALID,93.89,VALID,0,VALID,19.5078,VALID,140,VALID,0.677344,
2010-12-08, 00:47:04,VALID,916.318,VALID,0,VALID,94.2254,VALID,0,VALID,19.5273,VALID,140,VALID,0.364062,
2010-12-08, 00:48:04,VALID,916.338,VALID,0,VALID,94.3169,VALID,0,VALID,19.5063,VALID,140,VALID,0.405469,
2010-12-08, 00:49:04,VALID,916.296,VALID,0,VALID,94.3779,VALID,0,VALID,19.5468,VALID,140,VALID,0.632422,
2010-12-08, 00:50:04,VALID,916.318,VALID,0,VALID,94.3321,VALID,0,VALID,19.5468,VALID,140,VALID,0.661719,
2010-12-08, 00:51:04,VALID,916.277,VALID,0,VALID,94.2483,VALID,0,VALID,19.5678,VALID,140,VALID,0.548047,
2010-12-08, 00:52:04,VALID,916.272,VALID,0,VALID,94.1492,VALID,0,VALID,19.5468,VALID,140,VALID,0.460938,
2010-12-08, 00:53:04,VALID,916.284,VALID,0,VALID,94.1949,VALID,0,VALID,19.5468,VALID,140,VALID,0.378125,
2010-12-08, 00:54:04,VALID,916.277,VALID,0,VALID,94.2864,VALID,0,VALID,19.5468,VALID,140,VALID,0.255078,
2010-12-08, 00:55:04,VALID,916.277,VALID,0,VALID,94.3703,VALID,0,VALID,19.5663,VALID,140,VALID,0.531641,
2010-12-08, 00:56:04,VALID,916.253,VALID,0,VALID,94.4617,VALID,0,VALID,19.5858,VALID,140,VALID,0.457812,
2010-12-08, 00:57:04,VALID,916.262,VALID,0,VALID,94.5151,VALID,0,VALID,19.5858,VALID,140,VALID,0.44375,
2010-12-08, 00:58:04,VALID,916.269,VALID,0,VALID,94.4922,VALID,0,VALID,19.5858,VALID,140,VALID,0.20625,
2010-12-08, 00:59:04,VALID,916.234,VALID,0,VALID,94.4846,VALID,0,VALID,19.5648,VALID,140,VALID,0.0191406,
2010-12-08, 01:00:04,VALID,916.238,VALID,0,VALID,94.5913,VALID,0,VALID,19.5648,VALID,140,VALID,0,
2010-12-08, 01:01:04,VALID,916.291,VALID,0,VALID,94.5227,VALID,0,VALID,19.6053,VALID,140,VALID,0.477734,
2010-12-08, 01:02:04,VALID,916.241,VALID,0,VALID,94.4617,VALID,0,VALID,19.5843,VALID,140,VALID,0.265234,
2010-12-08, 01:03:04,VALID,916.223,VALID,0,VALID,94.2635,VALID,0,VALID,19.6428,VALID,140,VALID,0.561719,
2010-12-08, 01:04:04,VALID,916.212,VALID,0,VALID,93.9586,VALID,0,VALID,19.6233,VALID,140,VALID,0.564453,
2010-12-08, 01:05:04,VALID,916.223,VALID,0,VALID,93.9434,VALID,0,VALID,19.6248,VALID,140,VALID,0.303125,
2010-12-08, 01:06:04,VALID,916.228,VALID,0,VALID,93.9052,VALID,0,VALID,19.6443,VALID,140,VALID,0.438281,
2010-12-08, 01:07:04,VALID,916.246,VALID,0,VALID,93.9586,VALID,0,VALID,19.6248,VALID,140,VALID,0.172266,
2010-12-08, 01:08:04,VALID,916.251,VALID,0,VALID,93.9129,VALID,0,VALID,19.6038,VALID,140,VALID,0.217578,
2010-12-08, 01:09:04,VALID,916.21,VALID,0,VALID,93.829,VALID,0,VALID,19.6248,VALID,140,VALID,0.14375,
2010-12-08, 01:10:04,VALID,916.199,VALID,0,VALID,93.8061,VALID,0,VALID,19.6053,VALID,140,VALID,0.435156,
2010-12-08, 01:11:04,VALID,916.195,VALID,0,VALID,93.7604,VALID,0,VALID,19.6248,VALID,140,VALID,0.174219,
2010-12-08, 01:12:04,VALID,916.178,VALID,0,VALID,93.7756,VALID,0,VALID,19.6053,VALID,140,VALID,0.241406,
2010-12-08, 01:13:04,VALID,916.134,VALID,0,VALID,93.6994,VALID,0,VALID,19.6248,VALID,140,VALID,0.294141,
2010-12-08, 01:14:04,VALID,916.138,VALID,0,VALID,93.6918,VALID,0.107441,VALID,19.5843,VALID,140,VALID,0.226953,
2010-12-08, 01:15:04,VALID,916.137,VALID,0,VALID,93.5851,VALID,0,VALID,19.6038,VALID,140,VALID,0.344141,
2010-12-08, 01:16:04,VALID,916.088,VALID,0,VALID,93.768,VALID,0,VALID,19.6248,VALID,140,VALID,0.141797,
2010-12-08, 01:17:04,VALID,916.055,VALID,0,VALID,93.8214,VALID,0,VALID,19.6248,VALID,140,VALID,0,
2010-12-08, 01:18:04,VALID,916.061,VALID,0,VALID,93.8443,VALID,0,VALID,19.6248,VALID,140,VALID,0.00234375,
2010-12-08, 01:19:04,VALID,916.036,VALID,0,VALID,93.8671,VALID,0,VALID,19.6638,VALID,140,VALID,0.171094,
2010-12-08, 01:20:04,VALID,916.023,VALID,0,VALID,93.6537,VALID,0,VALID,19.6638,VALID,140,VALID,0.2125,
2010-12-08, 01:21:04,VALID,915.98,VALID,0,VALID,93.5851,VALID,0,VALID,19.6038,VALID,140,VALID,0.300391,
2010-12-08, 01:22:04,VALID,915.989,VALID,0,VALID,93.7909,VALID,0,VALID,19.6248,VALID,140,VALID,0.352734,
2010-12-08, 01:23:04,VALID,915.949,VALID,0,VALID,93.8519,VALID,0,VALID,19.6443,VALID,140,VALID,0.345703,
2010-12-08, 01:24:04,VALID,915.979,VALID,0,VALID,93.7528,VALID,0,VALID,19.6638,VALID,140,VALID,0.269141,
2010-12-08, 01:25:04,VALID,915.982,VALID,0,VALID,93.5851,VALID,0,VALID,19.6833,VALID,140,VALID,0.197656,
2010-12-08, 01:26:04,VALID,915.959,VALID,0,VALID,93.3945,VALID,0,VALID,19.7028,VALID,140,VALID,0.289063,
2010-12-08, 01:27:04,VALID,915.917,VALID,0,VALID,93.3106,VALID,0,VALID,19.7208,VALID,140,VALID,0.246094,
2010-12-08, 01:28:04,VALID,915.916,VALID,0,VALID,93.1886,VALID,0,VALID,19.7223,VALID,140,VALID,0.1875,
2010-12-08, 01:29:04,VALID,915.892,VALID,0,VALID,93.1658,VALID,0,VALID,19.7223,VALID,140,VALID,0.255859,
2010-12-08, 01:30:04,VALID,915.86,VALID,0,VALID,93.3716,VALID,0,VALID,19.7223,VALID,140,VALID,0.247266,
2010-12-08, 01:31:04,VALID,915.841,VALID,0,VALID,93.1048,VALID,0,VALID,19.7013,VALID,140,VALID,0.473828,
2010-12-08, 01:32:04,VALID,915.851,VALID,0,VALID,93.0514,VALID,0,VALID,19.6833,VALID,140,VALID,0.351172,
2010-12-08, 01:33:04,VALID,915.84,VALID,0,VALID,93.4021,VALID,0,VALID,19.7028,VALID,140,VALID,0.219922,
2010-12-08, 01:34:04,VALID,915.835,VALID,0,VALID,93.2268,VALID,0,VALID,19.6638,VALID,140,VALID,0.203516,
2010-12-08, 01:35:04,VALID,915.77,VALID,0,VALID,93.3182,VALID,0,VALID,19.6443,VALID,140,VALID,0.117578,
2010-12-08, 01:36:04,VALID,915.753,VALID,0,VALID,93.2268,VALID,0,VALID,19.6443,VALID,140,VALID,0,
2010-12-08, 01:37:04,VALID,915.723,VALID,0,VALID,93.1124,VALID,0,VALID,19.6833,VALID,140,VALID,0,
2010-12-08, 01:38:04,VALID,915.728,VALID,0,VALID,92.9752,VALID,0,VALID,19.6818,VALID,140,VALID,0,
2010-12-08, 01:39:04,VALID,915.762,VALID,0,VALID,93.059,VALID,0,VALID,19.7418,VALID,140,VALID,0,
2010-12-08, 01:40:04,VALID,915.708,VALID,0,VALID,93.3487,VALID,0,VALID,19.7808,VALID,140,VALID,0,
2010-12-08, 01:41:04,VALID,915.705,VALID,0,VALID,93.425,VALID,0.107441,VALID,19.7793,VALID,140,VALID,0,
2010-12-08, 01:42:04,VALID,915.665,VALID,0,VALID,93.4173,VALID,0,VALID,19.8003,VALID,140,VALID,0,
2010-12-08, 01:43:04,VALID,915.693,VALID,0,VALID,93.4097,VALID,0,VALID,19.8003,VALID,140,VALID,0,
2010-12-08, 01:44:04,VALID,915.654,VALID,0,VALID,93.1581,VALID,0,VALID,19.7613,VALID,140,VALID,0,
2010-12-08, 01:45:04,VALID,915.617,VALID,0,VALID,93.2725,VALID,0,VALID,19.7403,VALID,140,VALID,0,
2010-12-08, 01:46:04,VALID,915.599,VALID,0,VALID,93.2725,VALID,0,VALID,19.7223,VALID,140,VALID,0.367969,
2010-12-08, 01:47:04,VALID,915.577,VALID,0,VALID,93.303,VALID,0,VALID,19.6833,VALID,140,VALID,0.232812,
2010-12-08, 01:48:04,VALID,915.579,VALID,0,VALID,93.3564,VALID,0,VALID,19.6233,VALID,140,VALID,0.361719,
2010-12-08, 01:49:04,VALID,915.529,VALID,0,VALID,93.6689,VALID,0,VALID,19.6248,VALID,140,VALID,0,
2010-12-08, 01:50:04,VALID,915.499,VALID,0,VALID,93.9815,VALID,0,VALID,19.6443,VALID,140,VALID,0,
2010-12-08, 01:51:04,VALID,915.502,VALID,0,VALID,93.9281,VALID,0,VALID,19.5843,VALID,140,VALID,0.0746094,
2010-12-08, 01:52:04,VALID,915.445,VALID,0,VALID,93.951,VALID,0.107441,VALID,19.6038,VALID,140,VALID,0,
2010-12-08, 01:53:04,VALID,915.418,VALID,0,VALID,93.7756,VALID,0,VALID,19.6053,VALID,140,VALID,0,
2010-12-08, 01:54:04,VALID,915.407,VALID,0,VALID,93.5012,VALID,0,VALID,19.5453,VALID,140,VALID,0,
2010-12-08, 01:55:04,VALID,915.372,VALID,0,VALID,93.4936,VALID,0,VALID,19.5078,VALID,140,VALID,0,
2010-12-08, 01:56:04,VALID,915.371,VALID,0,VALID,93.6689,VALID,0,VALID,19.4478,VALID,140,VALID,0,
2010-12-08, 01:57:04,VALID,915.362,VALID,0,VALID,93.9129,VALID,0,VALID,19.4298,VALID,140,VALID,0,
2010-12-08, 01:58:04,VALID,915.359,VALID,0,VALID,94.1949,VALID,0,VALID,19.3893,VALID,140,VALID,0,
2010-12-08, 01:59:04,VALID,915.352,VALID,0,VALID,94.4313,VALID,0,VALID,19.4103,VALID,140,VALID,0.276172,
2010-12-08, 02:00:04,VALID,915.307,VALID,0,VALID,94.4617,VALID,0,VALID,19.4298,VALID,140,VALID,0,
2010-12-08, 02:01:04,VALID,915.267,VALID,0,VALID,94.3398,VALID,0,VALID,19.4493,VALID,140,VALID,0,
2010-12-08, 02:02:04,VALID,915.252,VALID,0,VALID,94.1416,VALID,0,VALID,19.4883,VALID,140,VALID,0,
2010-12-08, 02:03:04,VALID,915.217,VALID,0,VALID,93.9891,VALID,0,VALID,19.5273,VALID,140,VALID,0,
2010-12-08, 02:04:04,VALID,915.224,VALID,0,VALID,94.0425,VALID,0,VALID,19.5468,VALID,140,VALID,0,
2010-12-08, 02:05:04,VALID,915.207,VALID,0,VALID,93.8061,VALID,0,VALID,19.5273,VALID,140,VALID,0,
2010-12-08, 02:06:04,VALID,915.16,VALID,0,VALID,93.8519,VALID,0,VALID,19.5468,VALID,140,VALID,0.298047,
2010-12-08, 02:07:04,VALID,915.166,VALID,0,VALID,93.8366,VALID,0,VALID,19.5453,VALID,140,VALID,0.0105469,
2010-12-08, 02:08:04,VALID,915.166,VALID,0,VALID,93.6079,VALID,0,VALID,19.5078,VALID,140,VALID,0,
2010-12-08, 02:09:04,VALID,915.11,VALID,0,VALID,93.3564,VALID,0,VALID,19.4688,VALID,140,VALID,0,
2010-12-08, 02:10:04,VALID,915.043,VALID,0,VALID,93.4478,VALID,0,VALID,19.4493,VALID,140,VALID,0,
2010-12-08, 02:11:04,VALID,915.035,VALID,0,VALID,93.7756,VALID,0.107441,VALID,19.4103,VALID,140,VALID,0,
2010-12-08, 02:12:04,VALID,914.985,VALID,0,VALID,93.9357,VALID,0,VALID,19.3908,VALID,140,VALID,0,
2010-12-08, 02:13:04,VALID,914.963,VALID,0,VALID,94.2407,VALID,0,VALID,19.4298,VALID,140,VALID,0,
2010-12-08, 02:14:04,VALID,914.937,VALID,0,VALID,94.3931,VALID,0,VALID,19.4493,VALID,140,VALID,0,
2010-12-08, 02:15:04,VALID,914.898,VALID,0,VALID,94.3321,VALID,0,VALID,19.4688,VALID,140,VALID,0,
2010-12-08, 02:16:04,VALID,914.86,VALID,0,VALID,93.9738,VALID,0,VALID,19.4493,VALID,140,VALID,0,
2010-12-08, 02:17:04,VALID,914.837,VALID,0,VALID,93.8443,VALID,0,VALID,19.4103,VALID,140,VALID,0,
2010-12-08, 02:18:04,VALID,914.831,VALID,0,VALID,93.7909,VALID,0,VALID,19.3908,VALID,140,VALID,0,
2010-12-08, 02:19:04,VALID,914.802,VALID,0,VALID,93.9586,VALID,0,VALID,19.3713,VALID,140,VALID,0,
2010-12-08, 02:20:04,VALID,914.783,VALID,0,VALID,94.233,VALID,0,VALID,19.3713,VALID,140,VALID,0,
2010-12-08, 02:21:04,VALID,914.751,VALID,0,VALID,94.4008,VALID,0,VALID,19.3713,VALID,140,VALID,0,
2010-12-08, 02:22:04,VALID,914.746,VALID,0,VALID,94.66,VALID,0,VALID,19.3908,VALID,140,VALID,0,
2010-12-08, 02:23:04,VALID,914.728,VALID,0,VALID,94.7362,VALID,0,VALID,19.3908,VALID,140,VALID,0,
2010-12-08, 02:24:04,VALID,914.719,VALID,0,VALID,94.7896,VALID,0,VALID,19.4298,VALID,140,VALID,0,
2010-12-08, 02:25:04,VALID,914.712,VALID,0,VALID,94.8734,VALID,0,VALID,19.4883,VALID,140,VALID,0,
2010-12-08, 02:26:04,VALID,914.698,VALID,0,VALID,94.8429,VALID,0,VALID,19.5273,VALID,140,VALID,0.472266,
2010-12-08, 02:27:04,VALID,914.668,VALID,0,VALID,94.4465,VALID,0.107441,VALID,19.4673,VALID,140,VALID,0.364453,
2010-12-08, 02:28:04,VALID,914.67,VALID,0,VALID,94.012,VALID,0,VALID,19.4673,VALID,140,VALID,0.245703,
2010-12-08, 02:29:04,VALID,914.688,VALID,0,VALID,93.9129,VALID,0,VALID,19.4883,VALID,140,VALID,0.148047,
2010-12-08, 02:30:04,VALID,914.666,VALID,0,VALID,94.1644,VALID,0,VALID,19.4673,VALID,140,VALID,0.0453125,
2010-12-08, 02:31:04,VALID,914.664,VALID,0,VALID,94.4694,VALID,0,VALID,19.5078,VALID,140,VALID,0.0433594,
2010-12-08, 02:32:04,VALID,914.641,VALID,0,VALID,94.5456,VALID,0,VALID,19.5273,VALID,140,VALID,0.220313,
2010-12-08, 02:33:04,VALID,914.609,VALID,0,VALID,94.3093,VALID,0,VALID,19.5273,VALID,140,VALID,0,
2010-12-08, 02:34:04,VALID,914.593,VALID,0,VALID,94.3626,VALID,0,VALID,19.5258,VALID,140,VALID,0.416016,
2010-12-08, 02:35:04,VALID,914.567,VALID,0,VALID,94.2178,VALID,0,VALID,19.5663,VALID,140,VALID,0,
2010-12-08, 02:36:04,VALID,914.573,VALID,0,VALID,93.6994,VALID,0,VALID,19.5273,VALID,140,VALID,0.423438,
2010-12-08, 02:37:04,VALID,914.567,VALID,0,VALID,93.7833,VALID,0,VALID,19.5078,VALID,140,VALID,0.613281,
2010-12-08, 02:38:04,VALID,914.554,VALID,0,VALID,93.829,VALID,0,VALID,19.4478,VALID,23,VALID,1.11094,
2010-12-08, 02:39:04,VALID,914.578,VALID,0,VALID,93.7909,VALID,0,VALID,19.4688,VALID,23,VALID,0.541406,
2010-12-08, 02:40:04,VALID,914.561,VALID,0,VALID,93.8519,VALID,0,VALID,19.4298,VALID,23,VALID,0.366406,
2010-12-08, 02:41:04,VALID,914.602,VALID,0,VALID,93.9281,VALID,0,VALID,19.4298,VALID,23,VALID,0.503906,
2010-12-08, 02:42:04,VALID,914.599,VALID,0,VALID,94.1111,VALID,0,VALID,19.4493,VALID,23,VALID,0.435156,
2010-12-08, 02:43:04,VALID,914.573,VALID,0,VALID,93.9738,VALID,0,VALID,19.4298,VALID,23,VALID,0.664844,
2010-12-08, 02:44:04,VALID,914.593,VALID,0,VALID,93.9434,VALID,0,VALID,19.4298,VALID,23,VALID,0.890234,
2010-12-08, 02:45:04,VALID,914.586,VALID,0,VALID,94.0272,VALID,0,VALID,19.4313,VALID,23,VALID,0.995313,
2010-12-08, 02:46:04,VALID,914.565,VALID,0,VALID,94.1263,VALID,0,VALID,19.4103,VALID,23,VALID,0.948828,
2010-12-08, 02:47:04,VALID,914.6,VALID,0,VALID,94.0882,VALID,0,VALID,19.4298,VALID,23,VALID,0.85,
2010-12-08, 02:48:04,VALID,914.582,VALID,0,VALID,94.2254,VALID,0,VALID,19.4493,VALID,23,VALID,0.735156,
2010-12-08, 02:49:04,VALID,914.592,VALID,0,VALID,94.2407,VALID,0,VALID,19.4493,VALID,23,VALID,0.496875,
2010-12-08, 02:50:04,VALID,914.555,VALID,0,VALID,94.1339,VALID,0,VALID,19.4493,VALID,23,VALID,0.646484,
2010-12-08, 02:51:04,VALID,914.552,VALID,0,VALID,94.1949,VALID,0,VALID,19.3908,VALID,23,VALID,0.874609,
2010-12-08, 02:52:04,VALID,914.525,VALID,0,VALID,94.2712,VALID,0,VALID,19.3908,VALID,23,VALID,0.950391,
2010-12-08, 02:53:04,VALID,914.524,VALID,0,VALID,94.4389,VALID,0,VALID,19.3503,VALID,23,VALID,1.01445,
2010-12-08, 02:54:04,VALID,914.498,VALID,0,VALID,94.4694,VALID,0,VALID,19.3518,VALID,23,VALID,0.661328,
2010-12-08, 02:55:04,VALID,914.486,VALID,0,VALID,94.5532,VALID,0,VALID,19.3323,VALID,23,VALID,0.797266,
2010-12-08, 02:56:04,VALID,914.485,VALID,0,VALID,94.6752,VALID,0,VALID,19.3533,VALID,23,VALID,0.685547,
2010-12-08, 02:57:04,VALID,914.489,VALID,0,VALID,94.7209,VALID,0,VALID,19.3323,VALID,23,VALID,0.580078,
2010-12-08, 02:58:04,VALID,914.473,VALID,0,VALID,94.8429,VALID,0,VALID,19.3518,VALID,23,VALID,0.396484,
2010-12-08, 02:59:04,VALID,914.489,VALID,0,VALID,94.942,VALID,0,VALID,19.4103,VALID,23,VALID,0.274219,
2010-12-08, 03:00:04,VALID,914.469,VALID,0,VALID,94.9268,VALID,0,VALID,19.4298,VALID,23,VALID,0.283984,
2010-12-08, 03:01:04,VALID,914.475,VALID,0,VALID,94.8658,VALID,0.107441,VALID,19.4298,VALID,23,VALID,0.198437,
2010-12-08, 03:02:04,VALID,914.465,VALID,0,VALID,94.881,VALID,0,VALID,19.4298,VALID,23,VALID,0.0269531,
2010-12-08, 03:03:04,VALID,914.475,VALID,0,VALID,94.8734,VALID,0,VALID,19.4688,VALID,23,VALID,0.108984,
2010-12-08, 03:04:04,VALID,914.453,VALID,0,VALID,94.6905,VALID,0,VALID,19.4883,VALID,23,VALID,0.233203,
2010-12-08, 03:05:04,VALID,914.474,VALID,0,VALID,94.6295,VALID,0,VALID,19.5078,VALID,23,VALID,0.153125,
2010-12-08, 03:06:04,VALID,914.48,VALID,0,VALID,94.4465,VALID,0,VALID,19.5078,VALID,23,VALID,0.00585938,
2010-12-08, 03:07:04,VALID,914.491,VALID,0,VALID,94.2483,VALID,0.107441,VALID,19.4883,VALID,23,VALID,0.147656,
2010-12-08, 03:08:04,VALID,914.515,VALID,0,VALID,94.1339,VALID,0,VALID,19.5078,VALID,23,VALID,0.275781,
2010-12-08, 03:09:04,VALID,914.509,VALID,0,VALID,94.1492,VALID,0,VALID,19.4883,VALID,23,VALID,0.336328,
2010-12-08, 03:10:04,VALID,914.489,VALID,0,VALID,94.2635,VALID,0,VALID,19.5078,VALID,23,VALID,0.392188,
2010-12-08, 03:11:04,VALID,914.474,VALID,0,VALID,94.233,VALID,0,VALID,19.5273,VALID,23,VALID,0.491797,
2010-12-08, 03:12:04,VALID,914.491,VALID,0,VALID,94.2559,VALID,0,VALID,19.5453,VALID,23,VALID,0.0667969,
2010-12-08, 03:13:04,VALID,914.497,VALID,0,VALID,94.2864,VALID,0,VALID,19.5873,VALID,23,VALID,0,
2010-12-08, 03:14:04,VALID,914.478,VALID,0,VALID,94.3093,VALID,0,VALID,19.5663,VALID,23,VALID,0.563672,
2010-12-08, 03:15:04,VALID,914.456,VALID,0,VALID,94.1873,VALID,0,VALID,19.5663,VALID,23,VALID,0.677734,
2010-12-08, 03:16:04,VALID,914.482,VALID,0,VALID,94.1111,VALID,0,VALID,19.6053,VALID,23,VALID,0.424609,
2010-12-08, 03:17:04,VALID,914.465,VALID,0,VALID,93.7756,VALID,0,VALID,19.5858,VALID,23,VALID,0.627344,
2010-12-08, 03:18:04,VALID,914.49,VALID,0,VALID,93.7451,VALID,0,VALID,19.5663,VALID,23,VALID,0.755859,
2010-12-08, 03:19:04,VALID,914.483,VALID,0,VALID,93.9357,VALID,0,VALID,19.5273,VALID,23,VALID,0.925781,
2010-12-08, 03:20:04,VALID,914.5,VALID,0,VALID,94.1492,VALID,0,VALID,19.5273,VALID,23,VALID,0.394922,
2010-12-08, 03:21:04,VALID,914.479,VALID,0,VALID,94.2712,VALID,0,VALID,19.5258,VALID,23,VALID,0.663281,
2010-12-08, 03:22:04,VALID,914.489,VALID,0,VALID,94.2864,VALID,0,VALID,19.5063,VALID,23,VALID,0.466016,
2010-12-08, 03:23:04,VALID,914.514,VALID,0,VALID,94.3017,VALID,0,VALID,19.5063,VALID,23,VALID,0.323047,
2010-12-08, 03:24:04,VALID,914.455,VALID,0,VALID,94.5532,VALID,0,VALID,19.5663,VALID,23,VALID,0,
2010-12-08, 03:25:04,VALID,914.476,VALID,0,VALID,94.5075,VALID,0,VALID,19.5468,VALID,23,VALID,0.0316406,
2010-12-08, 03:26:04,VALID,914.495,VALID,0,VALID,94.4694,VALID,0,VALID,19.5468,VALID,23,VALID,0.687891,
2010-12-08, 03:27:04,VALID,914.476,VALID,0,VALID,94.5075,VALID,0,VALID,19.5468,VALID,23,VALID,0.900781,
2010-12-08, 03:28:04,VALID,914.507,VALID,0,VALID,94.4922,VALID,0,VALID,19.5453,VALID,23,VALID,0.251172,
2010-12-08, 03:29:04,VALID,914.484,VALID,0,VALID,94.5151,VALID,0,VALID,19.5648,VALID,23,VALID,0.196875,
2010-12-08, 03:30:04,VALID,914.496,VALID,0,VALID,94.4313,VALID,0,VALID,19.5858,VALID,23,VALID,0.411719,
2010-12-08, 03:31:04,VALID,914.482,VALID,0,VALID,94.3474,VALID,0,VALID,19.6053,VALID,23,VALID,0.801953,
2010-12-08, 03:32:04,VALID,914.495,VALID,0,VALID,94.2864,VALID,0,VALID,19.6233,VALID,23,VALID,0.314453,
2010-12-08, 03:33:04,VALID,914.465,VALID,0,VALID,94.2864,VALID,0,VALID,19.6638,VALID,23,VALID,0.00429688,
2010-12-08, 03:34:04,VALID,914.462,VALID,0,VALID,94.3703,VALID,0,VALID,19.6848,VALID,23,VALID,0.0691406,
2010-12-08, 03:35:04,VALID,914.465,VALID,0,VALID,94.2483,VALID,0,VALID,19.6833,VALID,23,VALID,0.321875,
2010-12-08, 03:36:04,VALID,914.47,VALID,0,VALID,94.1034,VALID,0,VALID,19.7223,VALID,23,VALID,0.359766,
2010-12-08, 03:37:04,VALID,914.461,VALID,0,VALID,93.7833,VALID,0,VALID,19.7208,VALID,323,VALID,0.528906,
2010-12-08, 03:38:04,VALID,914.483,VALID,0,VALID,93.6765,VALID,0,VALID,19.7793,VALID,323,VALID,0.175391,
2010-12-08, 03:39:04,VALID,914.507,VALID,0,VALID,93.3792,VALID,0,VALID,19.8003,VALID,323,VALID,0.260938,
2010-12-08, 03:40:04,VALID,914.533,VALID,0,VALID,93.2039,VALID,0,VALID,19.8198,VALID,323,VALID,0.937891,
2010-12-08, 03:41:04,VALID,914.491,VALID,0,VALID,93.2191,VALID,0,VALID,19.8603,VALID,323,VALID,0.766016,
2010-12-08, 03:42:04,VALID,914.478,VALID,0,VALID,92.9447,VALID,0,VALID,19.8393,VALID,323,VALID,0.604688,
2010-12-08, 03:43:04,VALID,914.517,VALID,0,VALID,93.1429,VALID,0,VALID,19.7988,VALID,345,VALID,0.676562,
2010-12-08, 03:44:04,VALID,914.487,VALID,0,VALID,93.3182,VALID,0,VALID,19.8003,VALID,346,VALID,0.666797,
2010-12-08, 03:45:04,VALID,914.488,VALID,0,VALID,93.3106,VALID,0,VALID,19.7988,VALID,346,VALID,0.685938,
2010-12-08, 03:46:04,VALID,914.466,VALID,0,VALID,93.2344,VALID,0,VALID,19.7793,VALID,346,VALID,0.724219,
2010-12-08, 03:47:04,VALID,914.479,VALID,0,VALID,93.2801,VALID,0.107441,VALID,19.7808,VALID,346,VALID,0.290234,